Year,Month,Day,Hour,Minute,Value (Times are PST for temperature in C)
2008,05,23,00,00,8.70
2008,05,23,00,01,8.70
2008,05,23,00,02,8.60
2008,05,23,00,03,8.60
2008,05,23,00,04,8.60
2008,05,23,00,05,8.60
2008,05,23,00,06,8.60
2008,05,23,00,07,8.60
2008,05,23,00,08,8.60
2008,05,23,00,09,8.60
2008,05,23,00,10,8.60
2008,05,23,00,11,8.60
2008,05,23,00,12,8.70
2008,05,23,00,13,8.70
2008,05,23,00,14,8.70
2008,05,23,00,15,8.70
2008,05,23,00,16,8.70
2008,05,23,00,17,8.80
2008,05,23,00,18,8.80
2008,05,23,00,19,8.80
2008,05,23,00,20,8.80
2008,05,23,00,21,8.80
2008,05,23,00,22,8.80
2008,05,23,00,23,8.80
2008,05,23,00,24,8.80
2008,05,23,00,25,8.80
2008,05,23,00,26,8.80
2008,05,23,00,27,8.80
2008,05,23,00,28,8.80
2008,05,23,00,29,8.80
2008,05,23,00,30,8.70
2008,05,23,00,31,8.70
2008,05,23,00,32,8.70
2008,05,23,00,33,8.70
2008,05,23,00,34,8.70
2008,05,23,00,35,8.70
2008,05,23,00,36,8.70
2008,05,23,00,37,8.60
2008,05,23,00,38,8.60
2008,05,23,00,39,8.60
2008,05,23,00,40,8.60
2008,05,23,00,41,8.60
2008,05,23,00,42,8.60
2008,05,23,00,43,8.60
2008,05,23,00,44,8.60
2008,05,23,00,45,8.60
2008,05,23,00,46,8.60
2008,05,23,00,47,8.50
2008,05,23,00,48,8.50
2008,05,23,00,49,8.50
2008,05,23,00,50,8.40
2008,05,23,00,51,8.40
2008,05,23,00,52,8.40
2008,05,23,00,53,8.40
2008,05,23,00,54,8.40
2008,05,23,00,55,8.40
2008,05,23,00,56,8.30
2008,05,23,00,57,8.30
2008,05,23,00,58,8.30
2008,05,23,00,59,8.30
2008,05,23,01,00,8.30
2008,05,23,01,01,8.30
2008,05,23,01,02,8.30
2008,05,23,01,03,8.30
2008,05,23,01,04,8.20
2008,05,23,01,05,8.20
2008,05,23,01,06,8.20
2008,05,23,01,07,8.20
2008,05,23,01,08,8.20
2008,05,23,01,09,8.20
2008,05,23,01,10,8.20
2008,05,23,01,11,8.20
2008,05,23,01,12,8.20
2008,05,23,01,13,8.20
2008,05,23,01,14,8.20
2008,05,23,01,15,8.20
2008,05,23,01,16,8.20
2008,05,23,01,17,8.20
2008,05,23,01,18,8.20
2008,05,23,01,19,8.20
2008,05,23,01,20,8.20
2008,05,23,01,21,8.20
2008,05,23,01,22,8.20
2008,05,23,01,23,8.20
2008,05,23,01,24,8.20
2008,05,23,01,25,8.20
2008,05,23,01,26,8.10
2008,05,23,01,27,8.10
2008,05,23,01,28,8.10
2008,05,23,01,29,8.10
2008,05,23,01,30,8.10
2008,05,23,01,31,8.00
2008,05,23,01,32,8.00
2008,05,23,01,33,7.90
2008,05,23,01,34,7.90
2008,05,23,01,35,7.90
2008,05,23,01,36,7.80
2008,05,23,01,37,7.80
2008,05,23,01,38,7.80
2008,05,23,01,39,7.70
2008,05,23,01,40,7.70
2008,05,23,01,41,7.70
2008,05,23,01,42,7.70
2008,05,23,01,43,7.70
2008,05,23,01,44,7.60
2008,05,23,01,45,7.60
2008,05,23,01,46,7.60
2008,05,23,01,47,7.60
2008,05,23,01,48,7.60
2008,05,23,01,49,7.50
2008,05,23,01,50,7.50
2008,05,23,01,51,7.40
2008,05,23,01,52,7.40
2008,05,23,01,53,7.40
2008,05,23,01,54,7.40
2008,05,23,01,55,7.40
2008,05,23,01,56,7.30
2008,05,23,01,57,7.30
2008,05,23,01,58,7.40
2008,05,23,01,59,7.40
2008,05,23,02,00,7.40
2008,05,23,02,01,7.40
2008,05,23,02,02,7.50
2008,05,23,02,03,7.60
2008,05,23,02,04,7.70
2008,05,23,02,05,7.90
2008,05,23,02,06,8.10
2008,05,23,02,07,8.10
2008,05,23,02,08,8.20
2008,05,23,02,09,8.20
2008,05,23,02,10,8.30
2008,05,23,02,11,8.30
2008,05,23,02,12,8.30
2008,05,23,02,13,8.30
2008,05,23,02,14,8.40
2008,05,23,02,15,8.40
2008,05,23,02,16,8.40
2008,05,23,02,17,8.40
2008,05,23,02,18,8.40
2008,05,23,02,19,8.30
2008,05,23,02,20,8.20
2008,05,23,02,21,8.20
2008,05,23,02,22,8.10
2008,05,23,02,23,7.90
2008,05,23,02,24,7.90
2008,05,23,02,25,7.80
2008,05,23,02,26,7.70
2008,05,23,02,27,7.70
2008,05,23,02,28,7.60
2008,05,23,02,29,7.50
2008,05,23,02,30,7.40
2008,05,23,02,31,7.40
2008,05,23,02,32,7.40
2008,05,23,02,33,7.30
2008,05,23,02,34,7.30
2008,05,23,02,35,7.20
2008,05,23,02,36,7.20
2008,05,23,02,37,7.20
2008,05,23,02,38,7.20
2008,05,23,02,39,7.10
2008,05,23,02,40,7.10
2008,05,23,02,41,7.10
2008,05,23,02,42,7.10
2008,05,23,02,43,7.10
2008,05,23,02,44,7.10
2008,05,23,02,45,7.10
2008,05,23,02,46,7.00
2008,05,23,02,47,7.10
2008,05,23,02,48,7.10
2008,05,23,02,49,7.10
2008,05,23,02,50,7.10
2008,05,23,02,51,7.10
2008,05,23,02,52,7.10
2008,05,23,02,53,7.20
2008,05,23,02,54,7.10
2008,05,23,02,55,7.10
2008,05,23,02,56,7.00
2008,05,23,02,57,7.00
2008,05,23,02,58,6.90
2008,05,23,02,59,6.90
2008,05,23,03,00,6.90
2008,05,23,03,01,6.90
2008,05,23,03,02,6.90
2008,05,23,03,03,6.80
2008,05,23,03,04,6.80
2008,05,23,03,05,6.80
2008,05,23,03,06,6.80
2008,05,23,03,07,6.80
2008,05,23,03,08,6.70
2008,05,23,03,09,6.70
2008,05,23,03,10,6.70
2008,05,23,03,11,6.70
2008,05,23,03,12,6.70
2008,05,23,03,13,6.60
2008,05,23,03,14,6.60
2008,05,23,03,15,6.60
2008,05,23,03,16,6.60
2008,05,23,03,17,6.60
2008,05,23,03,18,6.60
2008,05,23,03,19,6.60
2008,05,23,03,20,6.60
2008,05,23,03,21,6.60
2008,05,23,03,22,6.50
2008,05,23,03,23,6.50
2008,05,23,03,24,6.50
2008,05,23,03,25,6.40
2008,05,23,03,26,6.40
2008,05,23,03,27,6.40
2008,05,23,03,28,6.40
2008,05,23,03,29,6.30
2008,05,23,03,30,6.30
2008,05,23,03,31,6.30
2008,05,23,03,32,6.30
2008,05,23,03,33,6.30
2008,05,23,03,34,6.30
2008,05,23,03,35,6.20
2008,05,23,03,36,6.20
2008,05,23,03,37,6.20
2008,05,23,03,38,6.20
2008,05,23,03,39,6.20
2008,05,23,03,40,6.20
2008,05,23,03,41,6.20
2008,05,23,03,42,6.20
2008,05,23,03,43,6.20
2008,05,23,03,44,6.20
2008,05,23,03,45,6.20
2008,05,23,03,46,6.20
2008,05,23,03,47,6.20
2008,05,23,03,48,6.20
2008,05,23,03,49,6.20
2008,05,23,03,50,6.20
2008,05,23,03,51,6.20
2008,05,23,03,52,6.20
2008,05,23,03,53,6.20
2008,05,23,03,54,6.20
2008,05,23,03,55,6.20
2008,05,23,03,56,6.20
2008,05,23,03,57,6.30
2008,05,23,03,58,6.30
2008,05,23,03,59,6.30
2008,05,23,04,00,6.30
2008,05,23,04,01,6.30
2008,05,23,04,02,6.30
2008,05,23,04,03,6.20
2008,05,23,04,04,6.20
2008,05,23,04,05,6.20
2008,05,23,04,06,6.20
2008,05,23,04,07,6.20
2008,05,23,04,08,6.20
2008,05,23,04,09,6.20
2008,05,23,04,10,6.10
2008,05,23,04,11,6.10
2008,05,23,04,12,6.10
2008,05,23,04,13,6.10
2008,05,23,04,14,6.10
2008,05,23,04,15,6.10
2008,05,23,04,16,6.10
2008,05,23,04,17,6.10
2008,05,23,04,18,6.10
2008,05,23,04,19,6.10
2008,05,23,04,20,6.10
2008,05,23,04,21,6.20
2008,05,23,04,22,6.20
2008,05,23,04,23,6.30
2008,05,23,04,24,6.30
2008,05,23,04,25,6.30
2008,05,23,04,26,6.30
2008,05,23,04,27,6.30
2008,05,23,04,28,6.20
2008,05,23,04,29,6.20
2008,05,23,04,30,6.10
2008,05,23,04,31,6.10
2008,05,23,04,32,6.00
2008,05,23,04,33,6.00
2008,05,23,04,34,6.00
2008,05,23,04,35,6.00
2008,05,23,04,36,6.00
2008,05,23,04,37,6.00
2008,05,23,04,38,6.00
2008,05,23,04,39,6.10
2008,05,23,04,40,6.00
2008,05,23,04,41,6.00
2008,05,23,04,42,6.00
2008,05,23,04,43,6.00
2008,05,23,04,44,5.90
2008,05,23,04,45,5.90
2008,05,23,04,46,5.90
2008,05,23,04,47,5.90
2008,05,23,04,48,5.90
2008,05,23,04,49,5.90
2008,05,23,04,50,5.90
2008,05,23,04,51,5.80
2008,05,23,04,52,5.80
2008,05,23,04,53,5.80
2008,05,23,04,54,5.80
2008,05,23,04,55,5.70
2008,05,23,04,56,5.70
2008,05,23,04,57,5.70
2008,05,23,04,58,5.70
2008,05,23,04,59,5.70
2008,05,23,05,00,5.70
2008,05,23,05,01,5.70
2008,05,23,05,02,5.70
2008,05,23,05,03,5.70
2008,05,23,05,04,5.60
2008,05,23,05,05,5.60
2008,05,23,05,06,5.50
2008,05,23,05,07,5.50
2008,05,23,05,08,5.50
2008,05,23,05,09,5.40
2008,05,23,05,10,5.40
2008,05,23,05,11,5.40
2008,05,23,05,12,5.40
2008,05,23,05,13,5.40
2008,05,23,05,14,5.30
2008,05,23,05,15,5.30
2008,05,23,05,16,5.40
2008,05,23,05,17,5.40
2008,05,23,05,18,5.40
2008,05,23,05,19,5.40
2008,05,23,05,20,5.40
2008,05,23,05,21,5.40
2008,05,23,05,22,5.40
2008,05,23,05,23,5.40
2008,05,23,05,24,5.30
2008,05,23,05,25,5.30
2008,05,23,05,26,5.30
2008,05,23,05,27,5.30
2008,05,23,05,28,5.30
2008,05,23,05,29,5.30
2008,05,23,05,30,5.30
2008,05,23,05,31,5.30
2008,05,23,05,32,5.20
2008,05,23,05,33,5.20
2008,05,23,05,34,5.20
2008,05,23,05,35,5.30
2008,05,23,05,36,5.30
2008,05,23,05,37,5.20
2008,05,23,05,38,5.20
2008,05,23,05,39,5.20
2008,05,23,05,40,5.20
2008,05,23,05,41,5.20
2008,05,23,05,42,5.20
2008,05,23,05,43,5.20
2008,05,23,05,44,5.20
2008,05,23,05,45,5.20
2008,05,23,05,46,5.10
2008,05,23,05,47,5.10
2008,05,23,05,48,5.10
2008,05,23,05,49,5.00
2008,05,23,05,50,5.00
2008,05,23,05,51,5.00
2008,05,23,05,52,5.00
2008,05,23,05,53,5.00
2008,05,23,05,54,5.00
2008,05,23,05,55,5.00
2008,05,23,05,56,5.00
2008,05,23,05,57,5.00
2008,05,23,05,58,5.00
2008,05,23,05,59,5.00
2008,05,23,06,00,5.00
2008,05,23,06,01,5.00
2008,05,23,06,02,5.00
2008,05,23,06,03,5.00
2008,05,23,06,04,5.00
2008,05,23,06,05,5.00
2008,05,23,06,06,5.00
2008,05,23,06,07,5.00
2008,05,23,06,08,5.10
2008,05,23,06,09,5.10
2008,05,23,06,10,5.10
2008,05,23,06,11,5.10
2008,05,23,06,12,5.10
2008,05,23,06,13,5.10
2008,05,23,06,14,5.20
2008,05,23,06,15,5.20
2008,05,23,06,16,5.20
2008,05,23,06,17,5.30
2008,05,23,06,18,5.40
2008,05,23,06,19,5.50
2008,05,23,06,20,5.50
2008,05,23,06,21,5.60
2008,05,23,06,22,5.60
2008,05,23,06,23,5.70
2008,05,23,06,24,5.80
2008,05,23,06,25,5.80
2008,05,23,06,26,5.90
2008,05,23,06,27,6.00
2008,05,23,06,28,6.10
2008,05,23,06,29,6.20
2008,05,23,06,30,6.20
2008,05,23,06,31,6.30
2008,05,23,06,32,6.40
2008,05,23,06,33,6.40
2008,05,23,06,34,6.50
2008,05,23,06,35,6.60
2008,05,23,06,36,6.70
2008,05,23,06,37,6.70
2008,05,23,06,38,6.80
2008,05,23,06,39,6.80
2008,05,23,06,40,6.80
2008,05,23,06,41,6.90
2008,05,23,06,42,6.90
2008,05,23,06,43,6.90
2008,05,23,06,44,6.90
2008,05,23,06,45,6.90
2008,05,23,06,46,6.90
2008,05,23,06,47,7.00
2008,05,23,06,48,7.00
2008,05,23,06,49,7.00
2008,05,23,06,50,7.00
2008,05,23,06,51,7.00
2008,05,23,06,52,7.00
2008,05,23,06,53,7.00
2008,05,23,06,54,7.00
2008,05,23,06,55,7.00
2008,05,23,06,56,7.00
2008,05,23,06,57,7.10
2008,05,23,06,58,7.10
2008,05,23,06,59,7.20
2008,05,23,07,00,7.20
2008,05,23,07,01,7.20
2008,05,23,07,02,7.30
2008,05,23,07,03,7.30
2008,05,23,07,04,7.30
2008,05,23,07,05,7.40
2008,05,23,07,06,7.40
2008,05,23,07,07,7.40
2008,05,23,07,08,7.50
2008,05,23,07,09,7.50
2008,05,23,07,10,7.60
2008,05,23,07,11,7.60
2008,05,23,07,12,7.70
2008,05,23,07,13,7.80
2008,05,23,07,14,7.80
2008,05,23,07,15,7.90
2008,05,23,07,16,8.00
2008,05,23,07,17,8.20
2008,05,23,07,18,8.30
2008,05,23,07,19,8.40
2008,05,23,07,20,8.50
2008,05,23,07,21,8.50
2008,05,23,07,22,8.60
2008,05,23,07,23,8.60
2008,05,23,07,24,8.70
2008,05,23,07,25,8.80
2008,05,23,07,26,9.00
2008,05,23,07,27,9.20
2008,05,23,07,28,9.30
2008,05,23,07,29,9.40
2008,05,23,07,30,9.50
2008,05,23,07,31,9.60
2008,05,23,07,32,9.70
2008,05,23,07,33,9.80
2008,05,23,07,34,9.80
2008,05,23,07,35,9.90
2008,05,23,07,36,9.90
2008,05,23,07,37,9.90
2008,05,23,07,38,9.90
2008,05,23,07,39,9.90
2008,05,23,07,40,9.90
2008,05,23,07,41,9.90
2008,05,23,07,42,9.90
2008,05,23,07,43,9.90
2008,05,23,07,44,10.00
2008,05,23,07,45,10.00
2008,05,23,07,46,10.00
2008,05,23,07,47,10.00
2008,05,23,07,48,10.00
2008,05,23,07,49,10.10
2008,05,23,07,50,10.10
2008,05,23,07,51,10.10
2008,05,23,07,52,10.20
2008,05,23,07,53,10.20
2008,05,23,07,54,10.30
2008,05,23,07,55,10.40
2008,05,23,07,56,10.40
2008,05,23,07,57,10.50
2008,05,23,07,58,10.50
2008,05,23,07,59,10.50
2008,05,23,08,00,10.60
2008,05,23,08,01,10.60
2008,05,23,08,02,10.70
2008,05,23,08,03,10.70
2008,05,23,08,04,10.80
2008,05,23,08,05,10.80
2008,05,23,08,06,10.90
2008,05,23,08,07,10.90
2008,05,23,08,08,11.00
2008,05,23,08,09,11.00
2008,05,23,08,10,11.00
2008,05,23,08,11,11.10
2008,05,23,08,12,11.10
2008,05,23,08,13,11.10
2008,05,23,08,14,11.20
2008,05,23,08,15,11.20
2008,05,23,08,16,11.20
2008,05,23,08,17,11.30
2008,05,23,08,18,11.30
2008,05,23,08,19,11.30
2008,05,23,08,20,11.30
2008,05,23,08,21,11.30
2008,05,23,08,22,11.40
2008,05,23,08,23,11.40
2008,05,23,08,24,11.40
2008,05,23,08,25,11.50
2008,05,23,08,26,11.50
2008,05,23,08,27,11.60
2008,05,23,08,28,11.60
2008,05,23,08,29,11.60
2008,05,23,08,30,11.70
2008,05,23,08,31,11.70
2008,05,23,08,32,11.70
2008,05,23,08,33,11.80
2008,05,23,08,34,11.80
2008,05,23,08,35,11.80
2008,05,23,08,36,11.80
2008,05,23,08,37,11.80
2008,05,23,08,38,11.80
2008,05,23,08,39,11.80
2008,05,23,08,40,11.80
2008,05,23,08,41,11.90
2008,05,23,08,42,11.90
2008,05,23,08,43,11.90
2008,05,23,08,44,12.00
2008,05,23,08,45,12.10
2008,05,23,08,46,12.20
2008,05,23,08,47,12.30
2008,05,23,08,48,12.30
2008,05,23,08,49,12.40
2008,05,23,08,50,12.50
2008,05,23,08,51,12.60
2008,05,23,08,52,12.70
2008,05,23,08,53,12.80
2008,05,23,08,54,12.80
2008,05,23,08,55,12.90
2008,05,23,08,56,13.00
2008,05,23,08,57,13.10
2008,05,23,08,58,13.10
2008,05,23,08,59,13.20
2008,05,23,09,00,13.30
2008,05,23,09,01,13.40
2008,05,23,09,02,13.40
2008,05,23,09,03,13.40
2008,05,23,09,04,13.40
2008,05,23,09,05,13.40
2008,05,23,09,06,13.40
2008,05,23,09,07,13.40
2008,05,23,09,08,13.50
2008,05,23,09,09,13.50
2008,05,23,09,10,13.60
2008,05,23,09,11,13.60
2008,05,23,09,12,13.60
2008,05,23,09,13,13.60
2008,05,23,09,14,13.60
2008,05,23,09,15,13.60
2008,05,23,09,16,13.60
2008,05,23,09,17,13.60
2008,05,23,09,18,13.60
2008,05,23,09,19,13.60
2008,05,23,09,20,13.50
2008,05,23,09,21,13.40
2008,05,23,09,22,13.40
2008,05,23,09,23,13.30
2008,05,23,09,24,13.30
2008,05,23,09,25,13.20
2008,05,23,09,26,13.20
2008,05,23,09,27,13.20
2008,05,23,09,28,13.20
2008,05,23,09,29,13.20
2008,05,23,09,30,13.20
2008,05,23,09,31,13.20
2008,05,23,09,32,13.20
2008,05,23,09,33,13.10
2008,05,23,09,34,13.10
2008,05,23,09,35,13.10
2008,05,23,09,36,13.10
2008,05,23,09,37,13.10
2008,05,23,09,38,13.20
2008,05,23,09,39,13.30
2008,05,23,09,40,13.40
2008,05,23,09,41,13.50
2008,05,23,09,42,13.50
2008,05,23,09,43,13.60
2008,05,23,09,44,13.60
2008,05,23,09,45,13.70
2008,05,23,09,46,13.80
2008,05,23,09,47,13.90
2008,05,23,09,48,13.90
2008,05,23,09,49,13.90
2008,05,23,09,50,13.90
2008,05,23,09,51,14.00
2008,05,23,09,52,14.10
2008,05,23,09,53,14.10
2008,05,23,09,54,14.10
2008,05,23,09,55,14.10
2008,05,23,09,56,14.10
2008,05,23,09,57,14.10
2008,05,23,09,58,14.20
2008,05,23,09,59,14.30
2008,05,23,10,00,14.40
2008,05,23,10,01,14.60
2008,05,23,10,02,14.60
2008,05,23,10,03,14.70
2008,05,23,10,04,14.60
2008,05,23,10,05,14.60
2008,05,23,10,06,14.60
2008,05,23,10,07,14.60
2008,05,23,10,08,14.60
2008,05,23,10,09,14.70
2008,05,23,10,10,14.70
2008,05,23,10,11,14.80
2008,05,23,10,12,14.80
2008,05,23,10,13,14.90
2008,05,23,10,14,14.90
2008,05,23,10,15,14.90
2008,05,23,10,16,15.00
2008,05,23,10,17,15.00
2008,05,23,10,18,15.00
2008,05,23,10,19,15.00
2008,05,23,10,20,15.10
2008,05,23,10,21,15.00
2008,05,23,10,22,15.00
2008,05,23,10,23,15.00
2008,05,23,10,24,15.10
2008,05,23,10,25,15.10
2008,05,23,10,26,15.10
2008,05,23,10,27,15.10
2008,05,23,10,28,15.20
2008,05,23,10,29,15.20
2008,05,23,10,30,15.30
2008,05,23,10,31,15.30
2008,05,23,10,32,15.40
2008,05,23,10,33,15.40
2008,05,23,10,34,15.40
2008,05,23,10,35,15.40
2008,05,23,10,36,15.50
2008,05,23,10,37,15.50
2008,05,23,10,38,15.60
2008,05,23,10,39,15.60
2008,05,23,10,40,15.60
2008,05,23,10,41,15.70
2008,05,23,10,42,15.70
2008,05,23,10,43,15.60
2008,05,23,10,44,15.50
2008,05,23,10,45,15.40
2008,05,23,10,46,15.30
2008,05,23,10,47,15.10
2008,05,23,10,48,15.00
2008,05,23,10,49,15.00
2008,05,23,10,50,14.90
2008,05,23,10,51,14.80
2008,05,23,10,52,14.80
2008,05,23,10,53,14.70
2008,05,23,10,54,14.70
2008,05,23,10,55,14.70
2008,05,23,10,56,14.70
2008,05,23,10,57,14.80
2008,05,23,10,58,14.70
2008,05,23,10,59,14.70
2008,05,23,11,00,14.70
2008,05,23,11,01,14.50
2008,05,23,11,02,14.50
2008,05,23,11,03,14.40
2008,05,23,11,04,14.30
2008,05,23,11,05,14.30
2008,05,23,11,06,14.30
2008,05,23,11,07,14.40
2008,05,23,11,08,14.50
2008,05,23,11,09,14.50
2008,05,23,11,10,14.60
2008,05,23,11,11,14.60
2008,05,23,11,12,14.60
2008,05,23,11,13,14.60
2008,05,23,11,14,14.70
2008,05,23,11,15,14.70
2008,05,23,11,16,14.70
2008,05,23,11,17,14.80
2008,05,23,11,18,14.80
2008,05,23,11,19,14.90
2008,05,23,11,20,14.90
2008,05,23,11,21,14.80
2008,05,23,11,22,14.70
2008,05,23,11,23,14.70
2008,05,23,11,24,14.60
2008,05,23,11,25,14.50
2008,05,23,11,26,14.40
2008,05,23,11,27,14.30
2008,05,23,11,28,14.20
2008,05,23,11,29,14.20
2008,05,23,11,30,14.20
2008,05,23,11,31,14.30
2008,05,23,11,32,14.30
2008,05,23,11,33,14.40
2008,05,23,11,34,14.40
2008,05,23,11,35,14.40
2008,05,23,11,36,14.50
2008,05,23,11,37,14.50
2008,05,23,11,38,14.60
2008,05,23,11,39,14.60
2008,05,23,11,40,14.70
2008,05,23,11,41,14.80
2008,05,23,11,42,14.80
2008,05,23,11,43,14.90
2008,05,23,11,44,15.00
2008,05,23,11,45,15.00
2008,05,23,11,46,15.10
2008,05,23,11,47,15.20
2008,05,23,11,48,15.30
2008,05,23,11,49,15.40
2008,05,23,11,50,15.50
2008,05,23,11,51,15.50
2008,05,23,11,52,15.60
2008,05,23,11,53,15.70
2008,05,23,11,54,15.70
2008,05,23,11,55,15.80
2008,05,23,11,56,15.70
2008,05,23,11,57,15.70
2008,05,23,11,58,15.80
2008,05,23,11,59,15.80
2008,05,23,12,00,15.80
2008,05,23,12,01,15.80
2008,05,23,12,02,15.80
2008,05,23,12,03,15.80
2008,05,23,12,04,15.80
2008,05,23,12,05,15.70
2008,05,23,12,06,15.70
2008,05,23,12,07,15.80
2008,05,23,12,08,15.70
2008,05,23,12,09,15.60
2008,05,23,12,10,15.70
2008,05,23,12,11,15.60
2008,05,23,12,12,15.70
2008,05,23,12,13,15.70
2008,05,23,12,14,15.80
2008,05,23,12,15,15.80
2008,05,23,12,16,15.80
2008,05,23,12,17,15.90
2008,05,23,12,18,15.90
2008,05,23,12,19,16.00
2008,05,23,12,20,16.10
2008,05,23,12,21,16.20
2008,05,23,12,22,16.30
2008,05,23,12,23,16.30
2008,05,23,12,24,16.40
2008,05,23,12,25,16.30
2008,05,23,12,26,16.20
2008,05,23,12,27,16.10
2008,05,23,12,28,15.90
2008,05,23,12,29,15.80
2008,05,23,12,30,15.70
2008,05,23,12,31,15.60
2008,05,23,12,32,15.60
2008,05,23,12,33,15.60
2008,05,23,12,34,15.50
2008,05,23,12,35,15.40
2008,05,23,12,36,15.40
2008,05,23,12,37,15.50
2008,05,23,12,38,15.60
2008,05,23,12,39,15.70
2008,05,23,12,40,15.80
2008,05,23,12,41,15.90
2008,05,23,12,42,16.00
2008,05,23,12,43,16.10
2008,05,23,12,44,16.10
2008,05,23,12,45,16.00
2008,05,23,12,46,16.10
2008,05,23,12,47,16.20
2008,05,23,12,48,16.40
2008,05,23,12,49,16.40
2008,05,23,12,50,16.50
2008,05,23,12,51,16.60
2008,05,23,12,52,16.70
2008,05,23,12,53,16.70
2008,05,23,12,54,16.70
2008,05,23,12,55,16.70
2008,05,23,12,56,16.70
2008,05,23,12,57,16.60
2008,05,23,12,58,16.70
2008,05,23,12,59,16.70
2008,05,23,13,00,16.70
2008,05,23,13,01,16.70
2008,05,23,13,02,16.70
2008,05,23,13,03,16.80
2008,05,23,13,04,16.90
2008,05,23,13,05,17.00
2008,05,23,13,06,17.10
2008,05,23,13,07,17.30
2008,05,23,13,08,17.20
2008,05,23,13,09,17.20
2008,05,23,13,10,17.30
2008,05,23,13,11,17.30
2008,05,23,13,12,17.20
2008,05,23,13,13,17.20
2008,05,23,13,14,17.10
2008,05,23,13,15,17.00
2008,05,23,13,16,16.90
2008,05,23,13,17,16.90
2008,05,23,13,18,16.90
2008,05,23,13,19,17.00
2008,05,23,13,20,17.00
2008,05,23,13,21,17.00
2008,05,23,13,22,17.10
2008,05,23,13,23,17.20
2008,05,23,13,24,17.20
2008,05,23,13,25,17.30
2008,05,23,13,26,17.30
2008,05,23,13,27,17.30
2008,05,23,13,28,17.30
2008,05,23,13,29,17.40
2008,05,23,13,30,17.40
2008,05,23,13,31,17.40
2008,05,23,13,32,17.40
2008,05,23,13,33,17.50
2008,05,23,13,34,17.50
2008,05,23,13,35,17.60
2008,05,23,13,36,17.60
2008,05,23,13,37,17.70
2008,05,23,13,38,17.70
2008,05,23,13,39,17.80
2008,05,23,13,40,17.80
2008,05,23,13,41,17.90
2008,05,23,13,42,18.00
2008,05,23,13,43,18.00
2008,05,23,13,44,17.90
2008,05,23,13,45,17.90
2008,05,23,13,46,17.80
2008,05,23,13,47,17.90
2008,05,23,13,48,17.90
2008,05,23,13,49,17.90
2008,05,23,13,50,17.90
2008,05,23,13,51,18.00
2008,05,23,13,52,18.10
2008,05,23,13,53,18.10
2008,05,23,13,54,18.00
2008,05,23,13,55,18.00
2008,05,23,13,56,18.00
2008,05,23,13,57,18.00
2008,05,23,13,58,18.00
2008,05,23,13,59,18.00
2008,05,23,14,00,17.90
2008,05,23,14,01,17.80
2008,05,23,14,02,17.90
2008,05,23,14,03,17.80
2008,05,23,14,04,17.80
2008,05,23,14,05,17.70
2008,05,23,14,06,17.70
2008,05,23,14,07,17.80
2008,05,23,14,08,17.90
2008,05,23,14,09,18.00
2008,05,23,14,10,18.10
2008,05,23,14,11,18.10
2008,05,23,14,12,18.10
2008,05,23,14,13,18.10
2008,05,23,14,14,18.10
2008,05,23,14,15,18.20
2008,05,23,14,16,18.20
2008,05,23,14,17,18.20
2008,05,23,14,18,18.30
2008,05,23,14,19,18.50
2008,05,23,14,20,18.50
2008,05,23,14,21,18.60
2008,05,23,14,22,18.60
2008,05,23,14,23,18.80
2008,05,23,14,24,18.90
2008,05,23,14,25,18.80
2008,05,23,14,26,18.70
2008,05,23,14,27,18.60
2008,05,23,14,28,18.50
2008,05,23,14,29,18.30
2008,05,23,14,30,18.20
2008,05,23,14,31,18.10
2008,05,23,14,32,18.00
2008,05,23,14,33,18.00
2008,05,23,14,34,17.90
2008,05,23,14,35,17.90
2008,05,23,14,36,17.90
2008,05,23,14,37,17.90
2008,05,23,14,38,17.80
2008,05,23,14,39,17.70
2008,05,23,14,40,17.70
2008,05,23,14,41,17.80
2008,05,23,14,42,17.80
2008,05,23,14,43,17.80
2008,05,23,14,44,17.90
2008,05,23,14,45,18.00
2008,05,23,14,46,17.90
2008,05,23,14,47,17.80
2008,05,23,14,48,17.80
2008,05,23,14,49,17.70
2008,05,23,14,50,17.60
2008,05,23,14,51,17.60
2008,05,23,14,52,17.60
2008,05,23,14,53,17.70
2008,05,23,14,54,17.70
2008,05,23,14,55,17.70
2008,05,23,14,56,17.70
2008,05,23,14,57,17.70
2008,05,23,14,58,17.70
2008,05,23,14,59,17.70
2008,05,23,15,00,17.80
2008,05,23,15,01,17.80
2008,05,23,15,02,17.80
2008,05,23,15,03,17.70
2008,05,23,15,04,17.70
2008,05,23,15,05,17.70
2008,05,23,15,06,17.70
2008,05,23,15,07,17.70
2008,05,23,15,08,17.70
2008,05,23,15,09,17.70
2008,05,23,15,10,17.60
2008,05,23,15,11,17.60
2008,05,23,15,12,17.60
2008,05,23,15,13,17.50
2008,05,23,15,14,17.50
2008,05,23,15,15,17.50
2008,05,23,15,16,17.50
2008,05,23,15,17,17.60
2008,05,23,15,18,17.70
2008,05,23,15,19,17.70
2008,05,23,15,20,17.60
2008,05,23,15,21,17.60
2008,05,23,15,22,17.60
2008,05,23,15,23,17.70
2008,05,23,15,24,17.70
2008,05,23,15,25,17.70
2008,05,23,15,26,17.60
2008,05,23,15,27,17.60
2008,05,23,15,28,17.40
2008,05,23,15,29,17.30
2008,05,23,15,30,17.20
2008,05,23,15,31,17.20
2008,05,23,15,32,17.10
2008,05,23,15,33,17.00
2008,05,23,15,34,17.00
2008,05,23,15,35,16.80
2008,05,23,15,36,16.70
2008,05,23,15,37,16.50
2008,05,23,15,38,16.40
2008,05,23,15,39,16.30
2008,05,23,15,40,16.20
2008,05,23,15,41,16.20
2008,05,23,15,42,16.20
2008,05,23,15,43,16.20
2008,05,23,15,44,16.30
2008,05,23,15,45,16.30
2008,05,23,15,46,16.30
2008,05,23,15,47,16.20
2008,05,23,15,48,16.20
2008,05,23,15,49,16.20
2008,05,23,15,50,16.20
2008,05,23,15,51,16.20
2008,05,23,15,52,16.10
2008,05,23,15,53,15.90
2008,05,23,15,54,15.90
2008,05,23,15,55,15.80
2008,05,23,15,56,15.80
2008,05,23,15,57,15.70
2008,05,23,15,58,15.60
2008,05,23,15,59,15.60
2008,05,23,16,00,15.60
2008,05,23,16,01,15.60
2008,05,23,16,02,15.60
2008,05,23,16,03,15.60
2008,05,23,16,04,15.50
2008,05,23,16,05,15.50
2008,05,23,16,06,15.50
2008,05,23,16,07,15.60
2008,05,23,16,08,15.60
2008,05,23,16,09,15.60
2008,05,23,16,10,15.50
2008,05,23,16,11,15.50
2008,05,23,16,12,15.50
2008,05,23,16,13,15.40
2008,05,23,16,14,15.40
2008,05,23,16,15,15.40
2008,05,23,16,16,15.40
2008,05,23,16,17,15.40
2008,05,23,16,18,15.40
2008,05,23,16,19,15.30
2008,05,23,16,20,15.30
2008,05,23,16,21,15.30
2008,05,23,16,22,15.30
2008,05,23,16,23,15.20
2008,05,23,16,24,15.20
2008,05,23,16,25,15.20
2008,05,23,16,26,15.20
2008,05,23,16,27,15.20
2008,05,23,16,28,15.20
2008,05,23,16,29,15.20
2008,05,23,16,30,15.30
2008,05,23,16,31,15.30
2008,05,23,16,32,15.30
2008,05,23,16,33,15.30
2008,05,23,16,34,15.30
2008,05,23,16,35,15.30
2008,05,23,16,36,15.30
2008,05,23,16,37,15.40
2008,05,23,16,38,15.40
2008,05,23,16,39,15.50
2008,05,23,16,40,15.50
2008,05,23,16,41,15.60
2008,05,23,16,42,15.60
2008,05,23,16,43,15.60
2008,05,23,16,44,15.60
2008,05,23,16,45,15.60
2008,05,23,16,46,15.60
2008,05,23,16,47,15.70
2008,05,23,16,48,15.70
2008,05,23,16,49,15.70
2008,05,23,16,50,15.70
2008,05,23,16,51,15.60
2008,05,23,16,52,15.60
2008,05,23,16,53,15.60
2008,05,23,16,54,15.60
2008,05,23,16,55,15.60
2008,05,23,16,56,15.60
2008,05,23,16,57,15.60
2008,05,23,16,58,15.60
2008,05,23,16,59,15.70
2008,05,23,17,00,15.70
2008,05,23,17,01,15.70
2008,05,23,17,02,15.70
2008,05,23,17,03,15.80
2008,05,23,17,04,15.80
2008,05,23,17,05,15.70
2008,05,23,17,06,15.70
2008,05,23,17,07,15.70
2008,05,23,17,08,15.70
2008,05,23,17,09,15.70
2008,05,23,17,10,15.70
2008,05,23,17,11,15.70
2008,05,23,17,12,15.80
2008,05,23,17,13,15.80
2008,05,23,17,14,15.80
2008,05,23,17,15,15.80
2008,05,23,17,16,15.80
2008,05,23,17,17,15.80
2008,05,23,17,18,15.80
2008,05,23,17,19,15.80
2008,05,23,17,20,15.80
2008,05,23,17,21,15.90
2008,05,23,17,22,15.90
2008,05,23,17,23,15.90
2008,05,23,17,24,15.90
2008,05,23,17,25,15.90
2008,05,23,17,26,15.90
2008,05,23,17,27,15.90
2008,05,23,17,28,15.90
2008,05,23,17,29,15.90
2008,05,23,17,30,15.90
2008,05,23,17,31,15.90
2008,05,23,17,32,15.90
2008,05,23,17,33,15.90
2008,05,23,17,34,15.90
2008,05,23,17,35,15.90
2008,05,23,17,36,15.90
2008,05,23,17,37,16.00
2008,05,23,17,38,15.90
2008,05,23,17,39,16.00